Location: Boneville
(33.4331°N, 82.4399°W)
Time: 04:33:07
(UTC+00:00)

ARIANE 6 FM1 Upper Stage - Visible Passes

Search period start: 18 September 2024 00:00
Search period end: 28 September 2024 00:00
Orbit: 566 x 594 km, 62.0° (Epoch: 17 September)

Date Brightness Start Highest point End Pass type
(mag) Time Alt. Az. Time Alt. Az. Time Alt. Az.
18 Sep 4.8 00:25:59 10° SE 00:26:27 11° SE 00:26:27 11° SE visible
18 Sep 3.3 10:30:26 10° NNW 10:34:47 62° ENE 10:39:05 10° SE visible
19 Sep 3.7 00:29:17 10° S 00:32:44 24° ESE 00:33:45 22° E visible
19 Sep 5.1 02:08:18 10° WSW 02:10:14 21° W 02:10:14 21° W visible
19 Sep 5.9 08:57:59 10° NNE 08:59:40 12° NE 09:01:20 10° ENE visible
19 Sep 2.7 10:35:07 10° NW 10:39:29 75° WSW 10:43:49 10° SSE visible
20 Sep 3.0 00:33:18 10° S 00:37:19 43° ESE 00:40:50 13° NE visible
20 Sep 5.4 02:13:59 10° W 02:16:50 17° NW 02:17:18 17° NW visible
20 Sep 5.4 09:01:32 10° N 09:04:37 18° NE 09:07:41 10° E visible
20 Sep 3.2 10:40:00 10° NW 10:44:07 41° WSW 10:48:12 10° S visible
21 Sep 2.6 00:37:42 10° SSW 00:41:56 79° ESE 00:46:14 10° NE visible
21 Sep 5.9 02:20:32 10° WNW 02:21:48 11° NW 02:23:03 10° NNW visible
21 Sep 4.7 09:05:40 10° N 09:09:29 29° NE 09:13:16 10° ESE visible
21 Sep 3.9 10:45:10 10° WNW 10:48:41 24° WSW 10:52:10 10° SSW visible
22 Sep 3.3 00:42:26 10° SW 00:46:36 58° WNW 00:50:52 10° NNE visible
22 Sep 3.7 09:12:47 33° N 09:14:15 48° NE 09:18:27 10° SE visible
22 Sep 4.5 10:50:56 10° W 10:53:09 14° WSW 10:55:22 10° SW visible
23 Sep 4.4 00:47:28 10° WSW 00:51:21 34° NW 00:55:17 10° NNE visible
23 Sep 3.3 09:20:02 50° SE 09:20:02 50° SE 09:23:17 10° SSE visible
24 Sep 5.2 00:52:52 10° W 00:56:08 21° NW 00:59:28 10° N visible
24 Sep 5.0 09:27:10 14° SSE 09:27:10 14° SSE 09:27:47 10° SSE visible
25 Sep 5.7 00:58:48 10° WNW 01:01:00 14° NW 01:03:14 10° NNW visible
